Погода в поселке Красный Яр

Россия / Тульская область     54°10′38″N   37°53′24″E
темп.,
°C
ветер,
м/с
пор.,
м/с
влажн.,
%
обл.,
%
осадки,
мм/ч
давл.,
гПа
погр.,
м
13 апреля, вт
вт1300:00+10вюв5138687 0.0 1026269
03:00+9юв41381100 0.0 1026207
06:00+8юв4118082 0.0 1026172
09:00+12ююв51061100 0.0 1026297
12:00+17ююв694311 0.0 1025807
15:00+20ююв683592 0.0 10241469
18:00+17юв51041100 0.0 1023265
21:00+13юв514520 0.0 1023267
14 апреля, ср
ср1400:00+11юв514595 0.0 1023304
03:00+9юв4117036 0.0 1022198
06:00+7юв4107346 0.0 1022153
09:00+12ююв595652 0.0 1021340
12:00+16юв5742100 0.0 1020730
15:00+18ююв68335 0.0 10181719
18:00+16юв364217 0.0 1018145
21:00+12юв4655100 0.0 101875
15 апреля, чт
чт1500:00+10ююв2357100 0.0 101822
03:00+9юв226184 0.0 101815
06:00+9вюв226896 0.0 101719
09:00+12юв3459100 0.0 1017225
12:00+16ююв3448100 0.0 1017693
15:00+18юв3440100 0.0 10161364
18:00+16вюв1148100 0.0 101512
21:00+13всв3658100 0.0 101587
16 апреля, пт
пт1600:00+12св4116595 0.0 1015259
03:00+10в41275100 0.3 1015244
06:00+9св4882100 0.8 1016184
09:00+12всв587297 0.8 1017364
12:00+14в5762100 0.0 1018683
15:00+17всв7852100 0.0 10171234
18:00+16всв61157100 0.0 1018632
21:00+12всв81568100 0.0 1020614
17 апреля, сб
сб1700:00+9всв8148171 0.1 1022540
03:00+6св713875 0.1 1023473
06:00+5всв714805 0.0 1025526
09:00+8всв913645 0.0 1026771
12:00+11всв911430 0.0 10271282
15:00+12всв910350 0.0 10281566
18:00+10всв710440 0.0 10291438
21:00+7всв7134618 0.0 1031596